Live-Position
3D-Globus wird geladen...
Über Starlink 2449
Group: 3 satellites
Beschreibung wird geladen...
Nächste Überflüge
Passes for default location (London). Set your location on the main map for personalized predictions.
Höhenverlauf
Loading altitude history...
No altitude history available
Zweizeiliger Elementsatz
1 48112U 21027W 26123.67547484 -.00020339 00000-0 -64630-3 0 9998
2 48112 53.1606 272.1342 0000895 83.3167 276.7937 15.31656987280901
Epoch: 3. Mai 2026 •
Age: 14 hours
Aktueller Status
Höhe 484.1 km
Geschwindigkeit 7.62 km/s
Subsatellitenpunkt -38.98°S,
81°W
Startdatum 7. Apr. 2021
Alter 5 years
Typ internet
Startgruppe
Falcon 9 •
Launch 23 •
47 satellites
Starlink 2404
48093
Starlink 2412 48094
Starlink 2414 48095
Starlink 2417 48096
Starlink 2418 48097
Starlink 2421 48098
Starlink 2428 48099
Starlink 2430 48100
Starlink 2436 48101
Starlink 2439 48104
Starlink 2440 48105
Starlink 2442 48106
Starlink 2443 48107
Starlink 2448 48111
Starlink 2450 48113
Starlink 2452 48115
Starlink 2454 48116
Starlink 2455 48117
Starlink 2459 48119
Starlink 2460 48120
...and 26 more
Technische Details
Klassifizierung Payload
Masse 260.00 kg
Trockenmasse 248.00 kg
Gesamtmasse 260.00 kg
Länge 0.20 m
Durchmesser 2.80 m
Spannweite 9.00 m
Form Box + pan
Hersteller SPXS
Bus-Typ Starlink
Phasenstatus In Orbit
Besitzer/Staat SPXS/US
Most Searched
Loading...